{"data":{"norad_id":82729,"intl_designator":"","name":"UNKNOWN","alt_names":[],"object_type":"UNKNOWN","status":"UNKNOWN","operator":null,"country":null,"launch_date":null,"launch_site_code":null,"launch_vehicle":null,"mission":null,"orbit_class":"UNKNOWN","rcs_meters":null,"size_class":null,"mass_kg":null,"dimensions":null,"purposes":[],"wikipedia_slug":null,"has_3d_model":false,"image_url":null,"decayed_at":null,"tle_current":{"epoch":"2026-05-22T22:47:13.784640Z","epoch_age_seconds":246138,"freshness":"STALE","line1":"1 82729U          26142.94946510  .00001937  00000+0  64710-2 0  9990","line2":"2 82729  67.9681 227.0790 0836369 260.5876  89.9726 12.17962170554835","mean_motion":12.1796217,"eccentricity":0.0836369,"inclination_deg":67.9681,"raan_deg":227.079,"arg_perigee_deg":260.5876,"mean_anomaly_deg":89.9726,"bstar":0.006471,"rev_number":55483,"period_min":118.23027311267,"perigee_km":934.04346412387,"apogee_km":2268.8159058773,"semimajor_km":7979.5666850006,"source":"CELESTRAK","updated_at":"2026-05-25T13:38:11.194397Z"}}}